FW4130 Weather Reports


Display with metric or nautical units.
time (UTC)temp
F
wind
direction
speed
MPH
gust
MPH
rain 1hr
in
rain 24hr
in
rain mn
in
humidity
%
barometer
mb
20260507025203 31 75 0.0 2.0 0.02 1.18 0.08 99 1011.2
20260507025103 31 100 0.0 2.0 0.02 1.18 0.08 99 1011.2
20260507025004 31 110 0.0 2.0 0.02 1.18 0.08 99 1011.1
20260507024903 31 110 0.0 2.0 0.02 1.18 0.08 99 1011.2
20260507024804 31 129 0.0 2.0 0.02 1.18 0.08 99 1011.0
20260507024704 31 121 0.0 2.0 0.02 1.18 0.08 99 1011.0
20260507024603 31 119 0.0 2.0 0.02 1.18 0.08 99 1011.2
20260507024504 31 119 0.0 2.0 0.02 1.18 0.08 99 1011.2
20260507024403 31 119 0.0 2.0 0.02 1.18 0.08 99 1011.1
20260507024203 31 119 0.0 2.0 0.02 1.18 0.08 99 1010.8
20260507024104 31 120 0.0 2.0 0.02 1.18 0.08 99 1010.9
20260507024004 31 124 1.0 2.0 0.04 1.18 0.08 99 1010.9
20260507023904 31 124 1.0 2.0 0.04 1.18 0.08 99 1010.9
20260507023804 32 121 1.0 2.0 0.04 1.18 0.08 99 1010.9
20260507023704 32 117 1.0 2.0 0.04 1.18 0.08 99 1011.0
20260507023603 32 119 1.0 2.0 0.04 1.18 0.08 99 1011.1
20260507023504 32 121 1.0 2.0 0.04 1.18 0.08 99 1010.8
20260507023403 32 116 1.0 2.0 0.04 1.18 0.08 99 1011.1
20260507023303 32 114 1.0 2.0 0.04 1.18 0.08 99 1011.0
20260507023204 32 117 1.0 2.0 0.04 1.18 0.08 99 1011.2
20260507023104 32 117 1.0 2.0 0.04 1.18 0.08 99 1011.1
20260507023005 32 119 1.0 4.0 0.04 1.18 0.08 99 1011.1
20260507022904 32 119 2.0 4.0 0.04 1.18 0.08 99 1011.1
20260507022804 32 121 2.0 4.0 0.04 1.18 0.08 99 1011.1
20260507022704 32 125 2.0 4.0 0.04 1.18 0.08 99 1011.3
20260507022603 32 125 2.0 4.0 0.04 1.18 0.08 99 1011.1
20260507022403 32 130 1.0 4.0 0.02 1.17 0.07 99 1011.2
20260507022306 32 132 1.0 4.0 0.02 1.17 0.07 99 1011.2
20260507022204 32 121 1.0 4.0 0.02 1.17 0.07 99 1011.1
20260507022103 32 110 2.0 4.0 0.02 1.17 0.07 99 1011.1
20260507022004 32 105 1.0 4.0 0.02 1.17 0.07 99 1011.2
20260507021903 32 105 2.0 4.0 0.02 1.17 0.07 99 1011.1
20260507021803 32 103 2.0 4.0 0.02 1.17 0.07 99 1010.9
20260507021703 32 99 2.0 4.0 0.04 1.17 0.07 99 1011.0
20260507021604 32 98 2.0 4.0 0.04 1.17 0.07 99 1011.0
20260507021504 32 99 2.0 4.0 0.04 1.17 0.07 99 1011.1
20260507021404 32 103 3.0 4.0 0.04 1.17 0.07 99 1011.1
20260507021304 32 106 3.0 4.0 0.04 1.17 0.07 99 1010.9
20260507021204 32 109 3.0 4.0 0.04 1.17 0.07 99 1011.0
20260507021103 31 114 3.0 4.0 0.04 1.17 0.07 99 1010.9
20260507021004 31 115 3.0 4.0 0.04 1.17 0.07 99 1010.9
20260507020903 31 118 2.0 4.0 0.04 1.17 0.07 99 1011.0
20260507020804 31 118 2.0 4.0 0.05 1.17 0.07 99 1010.9
20260507020604 31 121 2.0 4.0 0.05 1.17 0.07 99 1010.8
20260507020504 31 122 2.0 4.0 0.04 1.16 0.06 99 1011.1
20260507020404 31 120 2.0 4.0 0.04 1.16 0.06 99 1010.9
20260507020303 31 118 2.0 2.0 0.04 1.16 0.06 99 1011.0
20260507020203 31 119 2.0 2.0 0.04 1.16 0.06 99 1011.1
20260507020103 31 118 2.0 4.0 0.05 1.16 0.06 99 1011.0
20260507020004 31 120 2.0 4.0 0.05 1.16 0.06 99 1010.9
20260507015904 31 119 2.0 4.0 0.05 1.16 0.06 99 1010.9
20260507015804 31 118 2.0 4.0 0.05 1.16 0.06 99 1010.9
20260507015703 31 121 2.0 4.0 0.05 1.16 0.06 99 1010.9
20260507015603 31 127 2.0 4.0 0.05 1.16 0.06 99 1010.9
20260507015504 31 130 2.0 4.0 0.05 1.16 0.06 99 1010.9
20260507015306 32 132 2.0 4.0 0.05 1.16 0.06 99 1010.9
20260507015203 32 134 2.0 6.0 0.05 1.16 0.06 99 1010.9
20260507015103 32 141 2.0 6.0 0.05 1.16 0.06 99 1011.0
20260507015004 32 141 3.0 6.0 0.05 1.16 0.06 99 1011.0
20260507014904 32 140 3.0 6.0 0.05 1.16 0.06 99 1010.9
20260507014804 32 138 3.0 6.0 0.05 1.16 0.06 99 1010.9
20260507014704 32 142 3.0 6.0 0.05 1.16 0.06 99 1010.8
20260507014603 32 143 3.0 6.0 0.05 1.16 0.06 99 1010.8
20260507014504 32 141 3.0 6.0 0.05 1.16 0.06 99 1011.0
20260507014403 32 139 3.0 6.0 0.05 1.16 0.06 99 1010.9
20260507014304 32 141 3.0 6.0 0.05 1.16 0.06 99 1010.8
20260507014204 32 139 3.0 6.0 0.05 1.16 0.06 99 1011.0
20260507014104 32 129 3.0 6.0 0.05 1.16 0.06 99 1010.8
20260507014004 32 124 2.0 4.0 0.04 1.15 0.05 99 1010.8
20260507013903 32 124 3.0 7.0 0.04 1.15 0.05 99 1010.8
20260507013803 32 125 3.0 7.0 0.04 1.15 0.05 99 1010.7
20260507013504 32 114 3.0 7.0 0.04 1.15 0.05 99 1010.8
20260507013403 32 114 3.0 7.0 0.04 1.15 0.05 99 1010.8
20260507013206 32 113 3.0 7.0 0.04 1.15 0.05 99 1010.9
20260507013104 32 115 3.0 7.0 0.04 1.15 0.05 99 1010.8
20260507013004 32 120 3.0 7.0 0.04 1.15 0.05 99 1010.8
20260507012904 32 120 3.0 7.0 0.04 1.15 0.05 99 1010.7
20260507012803 32 115 3.0 4.0 0.04 1.15 0.05 99 1010.7
20260507012703 32 113 3.0 4.0 0.04 1.15 0.05 99 1010.7
20260507012603 32 113 3.0 4.0 0.04 1.15 0.05 99 1010.8
20260507012504 32 115 3.0 4.0 0.04 1.15 0.05 99 1010.8
20260507012403 32 119 3.0 4.0 0.04 1.15 0.05 99 1010.7
20260507012306 32 117 3.0 4.0 0.04 1.15 0.05 99 1010.7
20260507012204 33 114 3.0 6.0 0.04 1.15 0.05 99 1010.8
20260507012103 33 114 3.0 6.0 0.04 1.15 0.05 99 1010.9
20260507012004 33 106 3.0 6.0 0.04 1.15 0.05 99 1010.7
20260507011903 33 100 3.0 6.0 0.04 1.16 0.05 99 1010.8
20260507011803 33 114 3.0 8.0 0.02 1.15 0.04 99 1010.9
20260507011704 33 119 4.0 8.0 0.02 1.15 0.04 99 1010.9
20260507011604 32 122 4.0 8.0 0.02 1.15 0.04 99 1010.9
20260507011505 32 126 5.0 8.0 0.02 1.15 0.04 99 1011.0
20260507011404 33 124 5.0 8.0 0.02 1.15 0.04 99 1010.8
20260507011303 32 126 5.0 8.0 0.02 1.15 0.04 99 1010.9
20260507011203 32 130 5.0 8.0 0.02 1.15 0.04 99 1010.9
20260507011004 32 135 4.0 8.0 0.02 1.15 0.04 99 1010.9
20260507010903 32 133 5.0 8.0 0.01 1.13 0.02 99 1010.8
20260507010804 32 130 5.0 8.0 0.01 1.13 0.02 99 1010.7
20260507010704 32 130 5.0 7.0 0.01 1.13 0.02 99 1010.7
20260507010504 32 123 4.0 6.0 0.01 1.13 0.02 99 1010.8
20260507010404 32 125 4.0 6.0 0.01 1.13 0.02 99 1011.0
20260507010303 32 125 4.0 7.0 0.01 1.13 0.02 99 1011.1
20260507010203 32 126 5.0 7.0 0.00 1.12 0.01 99 1010.9
20260507010104 32 127 5.0 7.0 0.00 1.12 0.01 99 1011.0
20260507010004 32 129 5.0 7.0 0.00 1.12 0.01 99 1010.8
20260507005904 32 134 5.0 7.0 0.00 1.12 0.01 99 1011.0
20260507005803 32 140 5.0 8.0 0.00 1.12 0.01 99 1010.9
20260507005703 32 134 5.0 8.0 0.00 1.12 0.01 99 1010.9
20260507005604 32 134 4.0 8.0 0.00 1.12 0.01 99 1011.0
20260507005504 32 132 5.0 8.0 0.00 1.12 0.01 99 1011.0
20260507005404 32 130 5.0 8.0 0.00 1.12 0.01 99 1010.8
20260507005305 32 127 5.0 8.0 0.00 1.12 0.01 99 1010.9
20260507005203 32 119 5.0 8.0 0.00 1.12 0.01 99 1010.9
20260507005103 33 115 5.0 8.0 0.00 1.12 0.01 99 1011.0
20260507004903 33 111 5.0 8.0 0.00 1.12 0.01 99 1011.0
20260507004803 33 104 5.0 7.0 0.00 1.12 0.01 99 1010.9
20260507004704 33 109 4.0 7.0 0.00 1.12 0.01 99 1011.0
20260507004603 33 109 4.0 7.0 0.00 1.12 0.01 99 1011.0
20260507004504 33 108 4.0 7.0 0.00 1.12 0.01 99 1010.9
20260507004403 33 109 4.0 7.0 0.00 1.12 0.01 99 1011.0
20260507004303 33 112 4.0 7.0 0.00 1.12 0.01 99 1011.0
20260507004203 33 116 3.0 7.0 0.00 1.12 0.01 99 1011.0
20260507004104 33 118 3.0 7.0 0.00 1.12 0.01 99 1010.8
20260507004004 33 117 3.0 4.0 0.00 1.12 0.01 99 1011.1
20260507003903 33 120 2.0 4.0 0.00 1.12 0.01 99 1011.1
20260507003603 33 126 2.0 4.0 0.00 1.12 0.01 99 1011.1
20260507003504 33 131 2.0 4.0 0.00 1.12 0.01 99 1011.0
20260507003303 33 127 1.0 2.0 0.00 1.13 0.01 99 1011.0
20260507003104 33 130 1.0 2.0 0.00 1.13 0.01 99 1011.0
20260507003005 33 129 1.0 2.0 0.00 1.13 0.01 99 1010.9
20260507002904 33 131 1.0 2.0 0.00 1.13 0.01 99 1011.0
20260507002803 33 134 1.0 2.0 0.00 1.13 0.01 99 1011.0
20260507002703 33 135 1.0 2.0 0.00 1.13 0.01 99 1010.8
20260507002603 33 138 1.0 2.0 0.00 1.13 0.01 99 1010.8
20260507002504 33 137 1.0 2.0 0.00 1.13 0.01 99 1011.0
20260507002404 33 134 1.0 2.0 0.00 1.13 0.01 99 1010.8
20260507002204 33 141 1.0 2.0 0.00 1.13 0.01 99 1010.8
20260507002103 33 140 2.0 2.0 0.00 1.13 0.01 99 1011.0
20260507002004 33 141 2.0 2.0 0.00 1.13 0.01 99 1011.0
20260507001903 33 142 2.0 2.0 0.00 1.13 0.01 99 1011.2
20260507001803 33 142 2.0 2.0 0.00 1.13 0.01 99 1011.0
20260507001704 33 145 2.0 2.0 0.00 1.13 0.01 99 1010.9
20260507001604 33 143 2.0 2.0 0.00 1.13 0.01 99 1011.0
20260507001504 33 143 2.0 2.0 0.00 1.13 0.01 99 1010.9
20260507001404 33 146 2.0 2.0 0.00 1.13 0.01 99 1011.0
20260507001203 33 143 2.0 2.0 0.00 1.13 0.01 99 1010.9
20260507001103 33 143 2.0 2.0 0.00 1.13 0.01 99 1011.0
20260507001004 33 141 2.0 2.0 0.00 1.13 0.01 99 1011.0
20260507000903 33 139 2.0 2.0 0.00 1.13 0.01 99 1010.8
20260507000804 33 144 2.0 2.0 0.00 1.13 0.01 99 1010.8
20260507000704 33 138 2.0 2.0 0.00 1.13 0.01 99 1011.1
20260507000603 33 137 2.0 4.0 0.00 1.13 0.01 99 1011.0
20260507000505 33 134 2.0 4.0 0.00 1.13 0.01 99 1011.0
20260507000405 33 140 2.0 4.0 0.00 1.13 0.01 99 1010.8
20260507000303 33 137 2.0 4.0 0.00 1.13 0.01 99 1011.0
20260507000205 33 136 3.0 4.0 0.00 1.13 0.01 99 1011.0
20260507000104 33 133 3.0 4.0 0.00 1.13 0.01 99 1011.0
20260507000005 33 130 3.0 4.0 0.00 1.13 0.01 99 1010.9
20260506235903 33 130 2.0 4.0 0.00 1.13 0.01 99 1010.8
20260506235703 33 121 2.0 4.0 0.00 1.13 0.01 99 1011.1
20260506235504 33 111 2.0 4.0 0.00 1.13 0.01 99 1010.8
20260506235404 33 87 2.0 4.0 0.00 1.13 0.01 99 1011.0
20260506235204 33 70 1.0 4.0 0.01 1.13 0.01 99 1011.0
20260506235103 33 67 1.0 4.0 0.01 1.13 0.01 99 1011.0
20260506235004 33 63 1.0 4.0 0.01 1.13 0.01 99 1011.0
20260506234903 33 63 1.0 4.0 0.01 1.13 0.01 99 1010.9
20260506234804 33 63 1.0 4.0 0.01 1.13 0.01 99 1010.9
20260506234704 33 66 1.0 4.0 0.01 1.13 0.01 99 1010.9
20260506234604 33 74 1.0 4.0 0.01 1.13 0.01 99 1010.7
20260506234504 33 73 1.0 4.0 0.01 1.13 0.01 99 1011.1
20260506234404 33 91 0.0 4.0 0.01 1.13 0.01 99 1011.0
20260506234303 33 146 0.0 2.0 0.01 1.13 0.01 99 1010.9
20260506234203 33 158 0.0 2.0 0.01 1.13 0.01 99 1010.8
20260506234103 32 158 0.0 2.0 0.01 1.13 0.01 99 1010.8
20260506234004 32 158 0.0 2.0 0.01 1.13 0.01 99 1010.8
20260506233903 32 158 0.0 2.0 0.01 1.13 0.01 99 1010.8
20260506233804 33 158 0.0 2.0 0.01 1.13 0.01 99 1010.9
20260506233704 33 158 0.0 2.0 0.01 1.13 0.01 99 1010.7
20260506233603 33 158 0.0 2.0 0.01 1.13 0.01 99 1010.6
20260506233504 33 0 0.0 0.0 0.01 1.13 0.01 99 1010.6
20260506233303 32 170 0.0 2.0 0.01 1.13 0.01 99 1010.8
20260506233203 32 170 0.0 2.0 0.01 1.13 0.01 99 1010.8
20260506233104 32 170 0.0 2.0 0.01 1.13 0.01 99 1010.6
20260506233005 32 159 0.0 2.0 0.01 1.13 0.01 99 1010.7
20260506232904 32 153 1.0 2.0 0.01 1.13 0.01 99 1010.5
20260506232703 32 148 1.0 2.0 0.01 1.13 0.01 99 1010.7
20260506232603 32 148 1.0 2.0 0.01 1.13 0.01 99 1010.6
20260506232504 33 149 1.0 2.0 0.01 1.13 0.01 99 1010.7
20260506232403 32 148 1.0 2.0 0.01 1.13 0.01 99 1010.6
20260506232306 32 145 1.0 2.0 0.01 1.13 0.01 99 1010.4
20260506232204 32 146 1.0 2.0 0.01 1.13 0.01 99 1010.8
20260506232104 32 148 1.0 2.0 0.01 1.13 0.01 99 1010.5
20260506232005 32 148 1.0 2.0 0.01 1.13 0.01 99 1010.6
20260506231904 32 151 1.0 2.0 0.01 1.13 0.01 99 1010.8
20260506231803 32 153 1.0 2.0 0.01 1.13 0.01 99 1010.3
20260506231703 32 158 1.0 2.0 0.01 1.13 0.01 99 1010.5
20260506231603 32 161 1.0 2.0 0.01 1.13 0.01 99 1010.6
20260506231504 32 164 1.0 2.0 0.01 1.13 0.01 99 1010.5
20260506231403 32 164 1.0 2.0 0.01 1.13 0.01 99 1010.5
20260506231303 32 163 1.0 2.0 0.01 1.13 0.01 99 1010.6
20260506231204 32 163 1.0 2.0 0.01 1.13 0.01 99 1010.6
20260506231005 33 164 1.0 2.0 0.01 1.13 0.01 99 1010.5
20260506230803 32 161 1.0 2.0 0.01 1.13 0.01 99 1010.8
20260506230703 32 161 1.0 2.0 0.01 1.13 0.01 99 1010.4
20260506230603 33 156 1.0 2.0 0.01 1.13 0.01 99 1010.6
20260506230504 33 150 1.0 2.0 0.01 1.13 0.01 99 1010.4
20260506230404 33 147 1.0 2.0 0.01 1.13 0.01 99 1010.6
20260506230304 33 143 0.0 2.0 0.01 1.13 0.01 99 1010.6
20260506230203 33 135 0.0 2.0 0.01 1.13 0.01 99 1010.7
20260506230103 33 135 0.0 2.0 0.01 1.13 0.01 99 1010.8
20260506230004 33 135 0.0 2.0 0.01 1.13 0.01 99 1010.8
20260506225904 33 135 0.0 2.0 0.01 1.13 0.01 99 1010.9
20260506225804 33 135 0.0 2.0 0.01 1.13 0.01 99 1010.9
20260506225703 33 135 0.0 2.0 0.01 1.13 0.01 99 1010.7
20260506225603 33 135 0.0 2.0 0.01 1.13 0.01 99 1010.8
20260506225403 32 0 0.0 0.0 0.00 1.12 0.00 99 1010.5
20260506225203 32 0 0.0 0.0 0.00 1.12 0.00 99 1010.6
20260506225103 32 0 0.0 0.0 0.00 1.12 0.00 99 1010.9
20260506225004 33 0 0.0 0.0 0.00 1.12 0.00 99 1010.7
20260506224903 33 0 0.0 0.0 0.00 1.13 0.00 99 1010.8
20260506224804 33 0 0.0 0.0 0.00 1.13 0.00 99 1010.9
20260506224704 33 0 0.0 0.0 0.00 1.13 0.00 99 1010.9
20260506224604 33 0 0.0 0.0 0.00 1.13 0.00 99 1011.2
20260506224504 33 0 0.0 0.0 0.00 1.13 0.00 99 1010.9
20260506224403 33 0 0.0 0.0 0.00 1.13 0.00 99 1010.9
20260506224303 33 0 0.0 0.0 0.00 1.13 0.00 99 1011.0
20260506224204 33 0 0.0 0.0 0.00 1.13 0.00 99 1011.0
20260506224104 33 0 0.0 0.0 0.00 1.13 0.00 99 1010.9
20260506223804 33 0 0.0 0.0 0.00 1.13 0.00 99 1011.0
20260506223703 33 0 0.0 0.0 0.00 1.13 0.00 99 1010.9
20260506223504 32 0 0.0 0.0 0.00 1.13 0.00 99 1010.9
20260506223404 32 0 0.0 0.0 0.00 1.13 0.00 99 1011.0
20260506223303 32 0 0.0 0.0 0.00 1.13 0.00 99 1011.0
20260506223203 32 0 0.0 0.0 0.00 1.13 0.00 99 1010.7
20260506223103 32 0 0.0 0.0 0.00 1.13 0.00 99 1011.1
20260506223004 32 0 0.0 0.0 0.00 1.13 0.00 99 1010.9
20260506222804 32 0 0.0 0.0 0.00 1.13 0.00 99 1011.0
20260506222704 32 0 0.0 0.0 0.00 1.13 0.00 99 1010.9
20260506222603 32 0 0.0 0.0 0.00 1.13 0.00 99 1010.9
20260506222403 32 0 0.0 0.0 0.00 1.13 0.00 99 1010.9
20260506222305 32 0 0.0 0.0 0.01 1.13 0.00 99 1011.0
20260506222204 32 0 0.0 0.0 0.01 1.13 0.00 99 1011.0
20260506222005 32 0 0.0 0.0 0.01 1.13 0.00 99 1010.9
20260506221904 32 0 0.0 0.0 0.01 1.13 0.00 99 1010.8
20260506221803 32 0 0.0 0.0 0.01 1.13 0.00 99 1011.0
20260506221703 32 0 0.0 0.0 0.01 1.13 0.00 99 1010.9
20260506221603 32 0 0.0 0.0 0.01 1.13 0.00 99 1010.8
20260506221504 33 0 0.0 0.0 0.01 1.13 0.00 99 1011.0
20260506221403 33 0 0.0 0.0 0.01 1.13 0.00 99 1010.9
20260506221303 33 0 0.0 0.0 0.01 1.13 0.00 99 1010.9
20260506221104 33 0 0.0 0.0 0.01 1.13 0.00 99 1010.8
20260506221005 33 0 0.0 0.0 0.02 1.13 0.00 99 1010.9
20260506220904 33 0 0.0 0.0 0.02 1.13 0.00 99 1011.1
20260506220803 33 0 0.0 0.0 0.02 1.13 0.00 99 1010.8
20260506220603 33 0 0.0 0.0 0.02 1.13 0.00 99 1011.0
20260506220504 32 0 0.0 0.0 0.02 1.13 0.00 99 1011.1
20260506220403 32 0 0.0 0.0 0.02 1.13 0.00 99 1010.8
20260506220303 32 0 0.0 0.0 0.02 1.13 0.00 99 1011.0
20260506220203 32 0 0.0 0.0 0.02 1.13 0.00 99 1010.9
20260506220104 33 0 0.0 0.0 0.02 1.13 0.00 99 1010.9
20260506220005 33 0 0.0 0.0 0.02 1.13 0.00 99 1010.8
20260506215904 33 0 0.0 0.0 0.02 1.13 1.13 99 1010.8
20260506215804 33 0 0.0 0.0 0.04 1.13 1.13 99 1011.0
20260506215703 33 0 0.0 0.0 0.04 1.13 1.13 99 1011.0
20260506215603 33 0 0.0 0.0 0.04 1.13 1.13 99 1011.0
20260506215504 33 0 0.0 0.0 0.04 1.13 1.13 99 1010.9
20260506215403 33 0 0.0 0.0 0.04 1.13 1.13 99 1011.1
20260506215306 33 0 0.0 0.0 0.04 1.13 1.13 99 1010.9
20260506215204 33 0 0.0 0.0 0.04 1.13 1.13 99 1011.0
20260506215103 33 0 0.0 0.0 0.04 1.13 1.13 99 1010.9
20260506214903 33 0 0.0 0.0 0.05 1.13 1.13 99 1010.8
20260506214803 32 0 0.0 0.0 0.05 1.13 1.13 99 1010.9
20260506214703 32 0 0.0 0.0 0.05 1.13 1.13 99 1011.2
20260506214604 32 0 0.0 0.0 0.05 1.13 1.13 99 1011.0
20260506214404 33 0 0.0 0.0 0.05 1.13 1.13 99 1010.8
20260506214304 33 0 0.0 0.0 0.05 1.13 1.13 99 1011.1
20260506214203 33 0 0.0 0.0 0.05 1.13 1.13 99 1010.9
20260506214103 33 0 0.0 0.0 0.05 1.13 1.13 99 1010.9
20260506213903 33 0 0.0 0.0 0.05 1.13 1.13 99 1010.9
20260506213803 33 0 0.0 0.0 0.05 1.13 1.13 99 1011.0
20260506213703 33 0 0.0 0.0 0.05 1.13 1.13 99 1010.9
20260506213504 33 0 0.0 0.0 0.05 1.13 1.13 99 1011.3
20260506213404 33 0 0.0 0.0 0.05 1.13 1.13 99 1011.1
20260506213304 33 0 0.0 0.0 0.05 1.13 1.13 99 1011.1
20260506213203 33 0 0.0 0.0 0.05 1.13 1.13 99 1010.9
20260506213005 33 0 0.0 0.0 0.06 1.13 1.13 99 1011.0
20260506212904 32 0 0.0 0.0 0.06 1.13 1.13 99 1011.1
20260506212805 33 0 0.0 0.0 0.06 1.13 1.13 99 1010.9
20260506212705 33 0 0.0 0.0 0.06 1.13 1.13 99 1011.1
20260506212605 33 0 0.0 0.0 0.06 1.13 1.13 99 1011.0
20260506212506 33 158 0.0 2.0 0.06 1.13 1.13 99 1011.1
20260506212405 33 167 0.0 2.0 0.05 1.12 1.12 99 1011.0
20260506212205 33 167 0.0 2.0 0.05 1.12 1.12 99 1011.1
20260506212105 33 167 0.0 2.0 0.06 1.12 1.12 99 1011.2
20260506212006 33 167 0.0 2.0 0.06 1.12 1.12 99 1011.0
20260506211705 33 160 0.0 2.0 0.07 1.12 1.12 99 1011.1
20260506211605 33 151 0.0 2.0 0.07 1.12 1.12 99 1011.2
20260506211505 33 151 1.0 2.0 0.07 1.12 1.12 99 1011.1
20260506211404 33 141 0.0 2.0 0.07 1.12 1.12 99 1011.1
20260506211305 33 141 0.0 2.0 0.07 1.12 1.12 99 1010.8
20260506211205 33 141 0.0 2.0 0.08 1.12 1.12 99 1011.2
20260506211105 33 140 0.0 2.0 0.07 1.11 1.11 99 1011.0
20260506211005 33 148 1.0 4.0 0.07 1.11 1.11 99 1011.2
20260506210905 33 148 1.0 4.0 0.07 1.11 1.11 99 1011.0
20260506210805 33 145 1.0 4.0 0.07 1.11 1.11 99 1011.2
20260506210705 33 149 1.0 4.0 0.07 1.11 1.11 99 1011.1
20260506210604 33 147 2.0 4.0 0.07 1.11 1.11 99 1011.1
20260506210404 33 142 2.0 4.0 0.07 1.11 1.11 99 1011.3
20260506210304 33 141 2.0 4.0 0.07 1.11 1.11 99 1011.3
20260506210205 33 141 3.0 4.0 0.07 1.11 1.11 99 1011.2
20260506210105 33 141 3.0 4.0 0.07 1.11 1.11 99 1011.3
20260506205705 34 142 3.0 4.0 0.06 1.10 1.10 99 1011.4
20260506205604 34 143 3.0 4.0 0.06 1.10 1.10 99 1011.2
20260506205505 34 144 3.0 4.0 0.06 1.10 1.10 99 1011.2
20260506205306 33 141 3.0 4.0 0.06 1.10 1.10 99 1011.2
20260506205205 33 139 3.0 4.0 0.06 1.10 1.10 99 1011.2
20260506205105 33 139 2.0 4.0 0.06 1.10 1.10 99 1011.2
20260506205006 33 137 2.0 4.0 0.05 1.09 1.09 99 1011.2
20260506204905 33 134 2.0 4.0 0.06 1.09 1.09 99 1011.3
20260506204805 33 133 1.0 4.0 0.06 1.09 1.09 99 1011.2
20260506204704 33 122 1.0 4.0 0.06 1.09 1.09 99 1011.2
20260506204604 33 121 1.0 2.0 0.06 1.09 1.09 99 1011.2
20260506204505 33 126 1.0 2.0 0.06 1.09 1.09 99 1011.3
20260506204404 33 137 1.0 2.0 0.06 1.09 1.09 99 1011.2
20260506204304 33 153 1.0 2.0 0.06 1.09 1.09 99 1011.2
20260506204105 33 173 1.0 2.0 0.06 1.09 1.09 99 1011.0
20260506203905 33 168 1.0 2.0 0.06 1.09 1.09 99 1011.0
20260506203705 34 167 2.0 2.0 0.06 1.09 1.09 99 1010.9
20260506203604 34 166 2.0 2.0 0.06 1.09 1.09 99 1011.0
20260506203405 33 169 2.0 2.0 0.06 1.09 1.09 99 1010.7
20260506203305 33 170 2.0 4.0 0.06 1.09 1.09 99 1010.7
20260506203104 33 171 2.0 4.0 0.05 1.07 1.07 99 1010.6
20260506203005 33 177 2.0 4.0 0.05 1.07 1.07 99 1011.0
20260506202904 33 179 2.0 4.0 0.05 1.09 1.07 99 1010.8
20260506202804 33 177 2.0 4.0 0.05 1.09 1.07 99 1010.6
20260506202706 33 179 2.0 4.0 0.05 1.09 1.07 99 1010.9
20260506202605 33 181 2.0 4.0 0.05 1.09 1.07 99 1010.7
20260506202506 33 181 2.0 4.0 0.05 1.09 1.07 99 1010.9
20260506202405 33 182 2.0 4.0 0.05 1.09 1.07 99 1010.8
20260506202306 33 179 2.0 4.0 0.05 1.09 1.07 99 1010.7
20260506202005 33 171 2.0 2.0 0.04 1.07 1.06 99 1010.7
20260506201805 33 166 2.0 4.0 0.02 1.06 1.05 99 1011.0
20260506201705 33 169 2.0 4.0 0.02 1.06 1.05 99 1010.8
20260506201605 33 175 2.0 4.0 0.02 1.06 1.05 99 1010.7
20260506201505 33 174 2.0 4.0 0.02 1.06 1.05 99 1010.7
20260506201404 33 171 2.0 4.0 0.02 1.06 1.05 99 1010.8
20260506201304 33 169 2.0 4.0 0.01 1.05 1.04 99 1010.7
20260506201204 33 171 2.0 4.0 0.01 1.05 1.04 99 1010.7
20260506201005 33 169 2.0 4.0 0.01 1.05 1.04 99 1010.9
20260506200905 33 167 2.0 2.0 0.01 1.05 1.04 99 1010.4
20260506200805 33 169 2.0 4.0 0.01 1.05 1.04 99 1010.8
20260506200705 33 166 2.0 4.0 0.01 1.05 1.04 99 1010.7
20260506200604 33 160 2.0 4.0 0.01 1.05 1.04 99 1010.6
20260506200505 33 161 2.0 4.0 0.01 1.05 1.04 99 1010.8
20260506200404 33 164 2.0 4.0 0.01 1.05 1.04 99 1010.7
20260506200304 33 167 2.0 4.0 0.02 1.05 1.04 99 1010.8
20260506195805 33 173 1.0 2.0 0.02 1.05 1.04 99 1010.8
20260506195705 33 173 1.0 2.0 0.02 1.05 1.04 99 1010.5
20260506195604 34 175 1.0 2.0 0.02 1.05 1.04 99 1010.6
20260506195505 33 172 1.0 2.0 0.02 1.05 1.04 99 1010.5
20260506195306 33 161 2.0 2.0 0.02 1.05 1.04 99 1010.6
20260506195204 33 155 2.0 2.0 0.02 1.05 1.04 99 1010.6
20260506195105 33 155 2.0 2.0 0.02 1.05 1.04 99 1010.3
20260506195005 33 156 2.0 2.0 0.02 1.05 1.04 99 1010.6
20260506194905 33 156 2.0 2.0 0.01 1.04 1.03 99 1010.4
20260506194805 33 155 2.0 2.0 0.02 1.04 1.03 99 1010.6
20260506194704 33 156 2.0 2.0 0.02 1.04 1.03 99 1010.6
20260506194505 33 155 2.0 2.0 0.02 1.04 1.03 99 1010.3
20260506194304 33 161 2.0 2.0 0.02 1.04 1.03 99 1010.5
20260506194204 33 168 2.0 2.0 0.02 1.04 1.03 99 1010.6
20260506194005 33 172 2.0 2.0 0.02 1.04 1.03 99 1010.3
20260506193904 33 174 2.0 2.0 0.02 1.05 1.03 99 1010.4
20260506193705 33 172 2.0 2.0 0.02 1.05 1.03 99 1010.5
20260506193605 33 171 2.0 2.0 0.02 1.05 1.03 99 1010.3
20260506193506 33 178 1.0 2.0 0.02 1.05 1.03 99 1010.2
20260506193405 33 177 1.0 2.0 0.02 1.06 1.03 99 1010.2
20260506193305 33 175 1.0 2.0 0.02 1.06 1.03 99 1010.4
20260506193204 33 171 1.0 2.0 0.02 1.06 1.03 99 1010.3
20260506192904 33 161 1.0 2.0 0.02 1.06 1.03 99 1010.5
20260506192804 33 161 1.0 2.0 0.02 1.06 1.03 99 1010.5
20260506192705 33 162 1.0 2.0 0.02 1.06 1.03 99 1010.4
20260506192605 33 162 1.0 2.0 0.02 1.06 1.03 99 1010.3
20260506192505 33 162 1.0 2.0 0.04 1.06 1.03 99 1010.6
20260506192405 33 161 1.0 2.0 0.04 1.06 1.03 99 1010.4
20260506192306 33 164 1.0 2.0 0.04 1.06 1.03 99 1010.3
20260506192205 33 163 1.0 2.0 0.04 1.06 1.03 99 1010.5
20260506192104 33 162 1.0 2.0 0.05 1.06 1.03 99 1010.5
20260506191904 33 160 1.0 2.0 0.05 1.06 1.03 99 1010.3
20260506191705 33 160 1.0 2.0 0.05 1.06 1.03 99 1010.3
20260506191605 33 159 1.0 2.0 0.06 1.06 1.03 99 1010.4
20260506191506 33 159 1.0 2.0 0.06 1.06 1.03 99 1010.1
20260506191405 34 159 1.0 2.0 0.07 1.06 1.03 99 1010.3
20260506191305 34 158 1.0 2.0 0.08 1.06 1.03 99 1010.2
20260506191204 34 160 1.0 2.0 0.08 1.06 1.03 99 1010.3
20260506191104 33 160 1.0 2.0 0.08 1.06 1.03 99 1010.3
20260506190904 33 161 2.0 2.0 0.09 1.06 1.03 99 1010.4
20260506190805 33 162 2.0 2.0 0.09 1.06 1.03 99 1010.4
20260506190705 33 159 2.0 2.0 0.09 1.06 1.03 99 1010.3
20260506190506 33 155 2.0 2.0 0.11 1.06 1.03 99 1010.4
20260506190405 33 154 2.0 2.0 0.13 1.06 1.03 99 1010.3
20260506190305 33 153 2.0 2.0 0.12 1.05 1.02 99 1010.2
20260506190204 33 152 2.0 2.0 0.12 1.05 1.02 99 1010.2
20260506190104 33 151 2.0 2.0 0.12 1.05 1.02 99 1010.2
20260506185904 33 152 2.0 2.0 0.12 1.05 1.02 99 1010.2
20260506185804 33 149 2.0 2.0 0.12 1.05 1.02 99 1010.3
20260506185705 33 150 1.0 2.0 0.12 1.05 1.02 99 1010.3
20260506185605 33 152 1.0 2.0 0.13 1.05 1.02 99 1010.3
20260506185505 33 155 1.0 2.0 0.13 1.05 1.02 99 1010.2
20260506185306 33 157 1.0 2.0 0.13 1.05 1.02 99 1010.2
20260506185204 33 156 1.0 4.0 0.14 1.05 1.02 99 1010.1
20260506185005 33 153 2.0 4.0 0.14 1.05 1.02 99 1010.4
20260506184904 33 149 2.0 4.0 0.14 1.05 1.02 99 1010.0
20260506184805 33 149 2.0 4.0 0.13 1.04 1.00 99 1010.2
20260506184705 33 151 2.0 4.0 0.13 1.04 1.00 99 1010.2
20260506184605 33 154 2.0 4.0 0.14 1.04 1.00 99 1010.5
20260506184405 33 155 2.0 4.0 0.15 1.04 1.00 99 1010.3
20260506184305 33 154 2.0 4.0 0.17 1.04 1.00 99 1010.3
20260506184204 33 156 2.0 4.0 0.18 1.04 1.00 99 1010.3
20260506184104 33 157 2.0 4.0 0.18 1.04 1.00 99 1010.3
20260506183905 33 160 2.0 4.0 0.19 1.04 1.00 99 1010.2
20260506183805 33 160 2.0 4.0 0.19 1.04 1.00 99 1010.1
20260506183705 33 157 2.0 4.0 0.21 1.04 1.00 99 1010.3
20260506183605 33 153 2.0 4.0 0.21 1.04 1.00 99 1010.2
20260506183505 33 151 2.0 4.0 0.22 1.04 1.00 99 1010.2
20260506183404 33 152 2.0 4.0 0.22 1.04 1.00 99 1010.1
20260506183304 32 154 2.0 4.0 0.24 1.04 1.00 99 1010.2
20260506183104 32 152 2.0 2.0 0.25 1.04 1.00 99 1010.1
20260506183005 32 159 2.0 2.0 0.26 1.04 1.00 99 1010.1
20260506182905 32 164 2.0 2.0 0.26 1.04 1.00 99 1010.3
20260506182805 32 171 2.0 2.0 0.26 1.04 1.00 99 1010.2
20260506182705 32 183 2.0 2.0 0.26 1.04 1.00 99 1010.4
20260506182604 32 185 2.0 4.0 0.26 1.03 0.99 99 1010.5
20260506182505 32 191 2.0 4.0 0.27 1.03 0.99 99 1010.4
20260506182404 32 196 2.0 4.0 0.27 1.03 0.99 99 1010.5
20260506182204 32 207 2.0 4.0 0.31 1.03 0.99 99 1010.4
20260506182105 32 215 2.0 4.0 0.30 1.02 0.98 99 1010.3
20260506181905 32 200 2.0 6.0 0.30 1.02 0.98 99 1010.2
20260506181805 32 195 2.0 6.0 0.30 1.02 0.98 99 1010.6
20260506181704 33 183 2.0 6.0 0.28 1.00 0.97 99 1010.3
20260506181505 33 143 2.0 6.0 0.28 0.99 0.96 99 1010.5
20260506181404 33 128 2.0 6.0 0.30 0.99 0.96 99 1010.7
20260506181305 33 129 2.0 6.0 0.28 0.98 0.94 99 1010.3
20260506181205 33 131 2.0 6.0 0.28 0.98 0.94 99 1010.5
20260506181104 33 129 2.0 6.0 0.28 0.98 0.94 99 1010.5
20260506181005 33 129 2.0 6.0 0.28 0.98 0.94 99 1010.6
20260506180904 33 140 2.0 2.0 0.28 0.97 0.93 99 1010.7
20260506180804 33 132 2.0 2.0 0.28 0.97 0.93 99 1010.4
20260506180704 33 128 1.0 2.0 0.28 0.97 0.93 99 1010.4
20260506180605 33 132 1.0 2.0 0.27 0.96 0.92 99 1010.3
20260506180404 33 131 1.0 2.0 0.26 0.93 0.90 99 1010.6
20260506180305 33 131 1.0 2.0 0.26 0.93 0.90 99 1010.6
20260506180205 33 130 1.0 2.0 0.26 0.93 0.90 99 1010.5
20260506180104 33 143 1.0 4.0 0.27 0.93 0.90 99 1010.6
20260506180006 33 151 1.0 4.0 0.28 0.93 0.90 99 1010.6
20260506175904 33 144 1.0 4.0 0.28 0.93 0.90 99 1010.5
20260506175804 33 148 2.0 4.0 0.28 0.93 0.90 99 1010.5
20260506175704 33 140 2.0 6.0 0.27 0.92 0.89 99 1010.4
20260506175605 33 128 3.0 6.0 0.27 0.92 0.89 99 1010.5
20260506175505 33 133 3.0 7.0 0.28 0.92 0.89 99 1010.3
20260506175306 33 137 4.0 7.0 0.30 0.92 0.89 99 1010.5
20260506175205 33 139 5.0 8.0 0.30 0.91 0.87 99 1010.4
20260506175104 33 134 6.0 8.0 0.30 0.91 0.87 99 1010.3
20260506175005 33 133 6.0 11.0 0.31 0.91 0.87 99 1010.2
20260506174904 33 137 7.0 11.0 0.32 0.91 0.87 99 1010.3
20260506174804 33 134 7.0 11.0 0.32 0.91 0.87 99 1010.4
20260506174704 33 131 7.0 11.0 0.31 0.90 0.86 99 1010.3
20260506174605 33 134 8.0 11.0 0.31 0.90 0.86 99 1010.2
20260506174505 33 132 8.0 11.0 0.31 0.89 0.85 99 1010.4
20260506174405 33 132 8.0 11.0 0.31 0.89 0.85 99 1010.3
20260506174006 33 133 8.0 11.0 0.32 0.85 0.81 99 1010.3
20260506173905 33 129 8.0 11.0 0.33 0.85 0.81 99 1010.3
20260506173804 33 129 8.0 11.0 0.32 0.84 0.80 99 1010.1
20260506173705 34 132 8.0 11.0 0.31 0.83 0.79 99 1010.3
20260506173605 34 132 8.0 11.0 0.31 0.83 0.79 99 1010.1
20260506173506 34 134 9.0 11.0 0.30 0.81 0.78 99 1010.2
20260506173305 33 130 9.0 11.0 0.30 0.80 0.77 99 1010.0
20260506173205 33 124 9.0 11.0 0.31 0.80 0.77 99 1010.1
20260506173105 34 122 9.0 11.0 0.30 0.79 0.76 99 1010.1
20260506172905 34 125 8.0 11.0 0.28 0.78 0.74 99 1010.1
20260506172704 34 124 7.0 11.0 0.28 0.77 0.73 99 1009.9
20260506172604 34 121 6.0 11.0 0.27 0.76 0.72 99 1010.0
20260506172307 34 120 5.0 8.0 0.26 0.74 0.71 99 1010.2
20260506172204 34 127 5.0 8.0 0.25 0.72 0.69 99 1010.0
20260506172105 34 131 5.0 8.0 0.25 0.72 0.69 99 1010.0
20260506172005 34 135 6.0 8.0 0.25 0.72 0.69 99 1010.1
20260506171805 34 136 6.0 8.0 0.25 0.72 0.69 99 1010.0
20260506171705 34 138 6.0 8.0 0.25 0.72 0.69 99 1010.0
20260506171604 34 140 6.0 8.0 0.24 0.71 0.67 99 1009.9
20260506171506 34 141 6.0 9.0 0.24 0.71 0.67 99 1009.9
20260506171305 34 148 7.0 14.0 0.22 0.70 0.66 99 1010.0
20260506171205 34 150 7.0 14.0 0.22 0.70 0.66 99 1009.9
20260506171104 34 148 7.0 14.0 0.22 0.70 0.66 99 1009.7
20260506171005 34 140 8.0 14.0 0.21 0.69 0.65 99 1009.6
20260506170905 34 141 8.0 14.0 0.21 0.69 0.65 99 1009.7
20260506170805 34 138 9.0 14.0 0.21 0.69 0.65 99 1009.5
20260506170604 34 142 9.0 14.0 0.20 0.67 0.64 99 1009.4
20260506170505 34 145 10.0 14.0 0.20 0.67 0.64 99 1009.4
20260506170304 34 138 10.0 15.0 0.20 0.67 0.64 99 1009.5
20260506170204 34 130 10.0 15.0 0.19 0.66 0.63 99 1009.4
20260506170105 35 127 9.0 15.0 0.19 0.66 0.63 99 1009.5
20260506170005 35 128 9.0 15.0 0.18 0.65 0.61 99 1009.5
20260506165905 34 123 8.0 15.0 0.18 0.65 0.61 99 1009.2
20260506165804 35 119 7.0 15.0 0.18 0.65 0.61 99 1009.5
20260506165704 35 115 6.0 15.0 0.18 0.65 0.61 99 1009.3
20260506165506 36 97 6.0 15.0 0.17 0.64 0.60 99 1009.5
20260506165405 36 96 5.0 15.0 0.15 0.63 0.59 99 1009.7
20260506165306 36 100 5.0 9.0 0.14 0.61 0.58 99 1009.7
20260506165204 36 108 5.0 9.0 0.14 0.61 0.58 99 1009.4
20260506165104 36 104 5.0 9.0 0.13 0.60 0.57 99 1009.5
20260506165005 36 115 5.0 9.0 0.12 0.59 0.56 99 1009.2
20260506164904 36 118 6.0 9.0 0.12 0.59 0.56 99 1009.4
20260506164805 36 117 6.0 9.0 0.12 0.59 0.56 99 1009.3
20260506164705 36 121 7.0 9.0 0.12 0.59 0.56 99 1009.3
20260506164604 36 120 8.0 9.0 0.11 0.58 0.54 99 1009.1
20260506164505 36 118 8.0 9.0 0.11 0.58 0.54 99 1009.2
20260506164405 36 118 8.0 9.0 0.09 0.57 0.53 99 1009.0
20260506164304 36 122 8.0 11.0 0.08 0.56 0.52 99 1008.9
20260506164205 36 126 9.0 11.0 0.07 0.54 0.51 99 1009.0
20260506164105 36 131 9.0 11.0 0.06 0.53 0.50 99 1009.0
20260506164005 36 125 9.0 11.0 0.06 0.53 0.50 99 1009.0
20260506163905 36 126 9.0 14.0 0.05 0.52 0.48 99 1009.2
20260506163804 36 132 9.0 14.0 0.05 0.52 0.48 99 1009.1
20260506163704 36 133 10.0 15.0 0.05 0.52 0.48 99 1009.1
20260506163405 36 139 11.0 17.0 0.04 0.51 0.47 99 1009.2
20260506163305 36 133 11.0 17.0 0.04 0.51 0.47 99 1009.4
20260506163205 36 133 11.0 17.0 0.02 0.50 0.46 99 1009.0
20260506163105 36 132 11.0 17.0 0.02 0.50 0.46 99 1009.0
20260506162904 36 135 9.0 17.0 0.02 0.50 0.46 99 1008.8
20260506162805 37 131 9.0 17.0 0.02 0.50 0.46 99 1008.9
20260506162705 37 122 8.0 17.0 0.01 0.48 0.45 99 1008.9
20260506162605 37 107 7.0 17.0 0.01 0.48 0.45 99 1008.9
20260506162404 38 96 4.0 17.0 0.01 0.48 0.45 99 1009.1
20260506162306 38 104 3.0 8.0 0.00 0.47 0.44 99 1009.1
20260506162105 38 94 2.0 7.0 0.00 0.47 0.44 99 1009.1
20260506161905 38 95 2.0 4.0 0.00 0.47 0.44 99 1009.1
20260506161804 38 121 2.0 6.0 0.01 0.47 0.44 99 1008.9
20260506161604 38 141 2.0 6.0 0.01 0.47 0.44 99 1009.2
20260506161404 38 146 3.0 6.0 0.01 0.47 0.44 99 1008.8
20260506161304 38 143 3.0 6.0 0.01 0.47 0.44 99 1008.9
20260506161205 38 138 4.0 7.0 0.01 0.47 0.44 99 1009.0
20260506161105 38 136 4.0 7.0 0.01 0.47 0.44 99 1008.8
20260506161005 38 133 4.0 7.0 0.01 0.47 0.44 99 1008.8
20260506160804 38 129 4.0 7.0 0.01 0.47 0.44 99 1008.8
20260506160604 38 130 3.0 7.0 0.01 0.47 0.44 99 1008.7
20260506160404 38 123 3.0 7.0 0.01 0.47 0.44 99 1008.8
20260506160305 38 121 3.0 7.0 0.01 0.47 0.44 99 1008.8
20260506160205 38 121 3.0 4.0 0.01 0.47 0.44 99 1008.8
20260506160105 38 119 3.0 4.0 0.01 0.47 0.44 99 1008.8
20260506155905 38 116 2.0 4.0 0.01 0.47 0.44 99 1008.9
20260506155804 38 113 2.0 4.0 0.01 0.47 0.44 99 1008.9
20260506155704 38 113 2.0 4.0 0.01 0.47 0.44 99 1008.8
20260506155605 38 111 2.0 4.0 0.01 0.47 0.44 99 1008.7
20260506155506 38 110 1.0 4.0 0.01 0.47 0.44 99 1008.9
20260506155405 39 106 1.0 4.0 0.01 0.47 0.44 99 1008.6
20260506155205 39 102 1.0 4.0 0.01 0.47 0.44 99 1008.8
20260506155005 39 0 0.0 0.0 0.01 0.47 0.44 99 1008.7
20260506154904 39 0 0.0 0.0 0.01 0.48 0.44 99 1008.7
20260506154804 39 0 0.0 0.0 0.01 0.48 0.44 99 1008.8
20260506154604 39 270 0.0 2.0 0.01 0.48 0.44 99 1008.7
20260506154505 39 270 0.0 2.0 0.01 0.48 0.44 99 1009.0
20260506154404 39 270 0.0 2.0 0.01 0.48 0.44 99 1008.8
20260506154305 39 258 1.0 2.0 0.01 0.48 0.44 99 1008.7
20260506154205 39 237 1.0 2.0 0.01 0.48 0.44 99 1008.8
20260506154104 40 183 1.0 2.0 0.01 0.48 0.44 99 1008.8
20260506154005 40 176 1.0 2.0 0.01 0.48 0.44 99 1008.7
20260506153904 40 176 1.0 2.0 0.01 0.48 0.44 99 1008.7
20260506153804 40 176 1.0 2.0 0.01 0.48 0.44 99 1008.6
20260506153705 40 153 1.0 2.0 0.01 0.48 0.44 99 1008.7
20260506153605 40 128 1.0 2.0 0.01 0.48 0.44 99 1008.7
20260506153504 40 120 0.0 2.0 0.01 0.48 0.44 99 1008.9
20260506153405 40 128 0.0 2.0 0.01 0.48 0.44 99 1008.7
20260506153304 40 142 0.0 2.0 0.01 0.48 0.44 99 1008.7
20260506153104 40 272 0.0 2.0 0.01 0.48 0.44 99 1008.9
20260506152904 40 292 0.0 2.0 0.01 0.48 0.44 99 1008.8
20260506152804 40 292 0.0 2.0 0.01 0.48 0.44 99 1008.9
20260506152704 40 292 0.0 2.0 0.01 0.48 0.44 99 1008.9
20260506152605 40 292 0.0 2.0 0.01 0.48 0.44 99 1008.9
20260506152404 40 292 0.0 2.0 0.01 0.48 0.44 99 1008.9
20260506152205 40 158 0.0 2.0 0.01 0.48 0.44 99 1008.8
20260506152104 40 158 0.0 2.0 0.01 0.48 0.44 99 1008.9
20260506151905 40 161 1.0 2.0 0.00 0.47 0.43 99 1009.0
20260506151804 40 165 1.0 2.0 0.00 0.47 0.43 99 1008.9
20260506151604 40 165 1.0 2.0 0.00 0.47 0.43 99 1008.8
20260506151505 39 165 1.0 2.0 0.00 0.47 0.43 99 1008.9
20260506151404 39 165 1.0 2.0 0.00 0.47 0.43 99 1008.8
20260506151304 39 165 1.0 2.0 0.00 0.47 0.43 99 1008.8
20260506151205 39 167 1.0 2.0 0.00 0.47 0.43 99 1008.9
20260506151105 39 164 1.0 2.0 0.00 0.47 0.43 99 1008.7
20260506151005 40 157 0.0 2.0 0.00 0.47 0.43 99 1008.8
20260506150904 40 151 0.0 2.0 0.00 0.47 0.43 99 1009.1
20260506150804 40 135 0.0 2.0 0.00 0.47 0.43 99 1008.9
20260506150704 40 135 0.0 2.0 0.00 0.47 0.43 99 1008.9
20260506150605 40 90 0.0 2.0 0.00 0.47 0.43 99 1008.8
20260506150404 40 52 1.0 2.0 0.00 0.47 0.43 99 1008.9
20260506150305 40 52 1.0 2.0 0.00 0.47 0.43 99 1009.0
20260506150205 41 52 1.0 2.0 0.00 0.47 0.43 99 1008.9
20260506150104 41 39 1.0 2.0 0.00 0.47 0.43 99 1009.0
20260506150005 40 23 1.0 2.0 0.00 0.47 0.43 99 1009.0
20260506145904 40 23 1.0 2.0 0.00 0.48 0.43 99 1009.0
20260506145804 41 37 1.0 2.0 0.00 0.48 0.43 99 1009.0
20260506145705 41 41 1.0 2.0 0.00 0.48 0.43 99 1009.0
20260506145505 41 55 1.0 2.0 0.00 0.48 0.43 99 1008.8
20260506145405 42 99 1.0 2.0 0.00 0.48 0.43 99 1008.9
20260506145204 42 123 1.0 2.0 0.00 0.48 0.43 99 1008.8
20260506145104 42 123 1.0 2.0 0.01 0.48 0.43 99 1008.6
20260506144904 42 123 1.0 2.0 0.01 0.48 0.43 99 1008.9
20260506144804 41 140 1.0 2.0 0.01 0.48 0.43 99 1008.8
20260506144704 41 158 1.0 2.0 0.01 0.48 0.43 99 1008.9
20260506144605 41 156 1.0 2.0 0.01 0.48 0.43 99 1008.9
20260506144404 42 159 1.0 2.0 0.01 0.48 0.43 99 1008.7
20260506144305 42 159 1.0 2.0 0.01 0.48 0.43 99 1008.8
20260506144205 42 159 1.0 2.0 0.01 0.48 0.43 99 1008.7
20260506144105 42 164 1.0 2.0 0.01 0.48 0.43 99 1008.8
20260506144005 42 176 1.0 2.0 0.01 0.48 0.43 99 1008.8
20260506143905 41 185 1.0 2.0 0.01 0.48 0.43 99 1008.9
20260506143704 40 223 2.0 2.0 0.01 0.48 0.43 99 1008.9
20260506143604 40 244 2.0 2.0 0.01 0.48 0.43 99 1008.7
20260506143404 40 278 1.0 2.0 0.02 0.48 0.43 99 1008.8
20260506143204 40 282 1.0 2.0 0.02 0.48 0.43 99 1009.0
20260506143104 41 275 1.0 2.0 0.02 0.48 0.43 99 1009.0
20260506143005 41 267 1.0 2.0 0.02 0.48 0.43 99 1009.1
20260506142905 41 261 1.0 2.0 0.02 0.48 0.43 99 1009.1
20260506142705 41 267 1.0 2.0 0.02 0.48 0.43 99 1009.1
20260506142604 41 261 1.0 2.0 0.02 0.48 0.43 99 1008.8
20260506142505 41 249 1.0 2.0 0.02 0.48 0.43 99 1009.0
20260506142404 40 257 1.0 2.0 0.02 0.48 0.43 99 1009.0
20260506142204 41 269 1.0 2.0 0.02 0.48 0.43 99 1009.0
20260506142104 41 292 1.0 2.0 0.02 0.48 0.43 99 1009.1
20260506141904 41 344 1.0 2.0 0.02 0.48 0.43 99 1009.1
20260506141804 41 352 1.0 2.0 0.02 0.48 0.43 99 1009.1
20260506141705 41 1 1.0 2.0 0.02 0.48 0.43 99 1008.9
20260506141605 42 3 1.0 2.0 0.02 0.48 0.43 99 1008.9
20260506141505 42 3 1.0 2.0 0.02 0.48 0.43 99 1009.0
20260506141405 42 3 1.0 2.0 0.02 0.48 0.43 99 1009.1
20260506141304 42 8 1.0 2.0 0.02 0.48 0.43 99 1009.2
20260506141204 42 8 1.0 2.0 0.02 0.48 0.43 99 1009.4
20260506141104 42 9 1.0 2.0 0.02 0.48 0.43 99 1009.0
20260506141005 42 11 1.0 2.0 0.02 0.48 0.43 99 1009.2
20260506140904 42 1 0.0 2.0 0.02 0.48 0.43 99 1009.0
20260506140804 42 337 0.0 2.0 0.04 0.48 0.43 99 1009.2
20260506140705 43 325 0.0 2.0 0.04 0.48 0.43 99 1009.0
20260506140605 43 270 0.0 2.0 0.04 0.48 0.43 99 1009.1
20260506140505 42 279 0.0 2.0 0.04 0.48 0.43 99 1009.1
20260506140305 42 277 0.0 2.0 0.04 0.48 0.43 99 1009.0
20260506140204 42 276 0.0 2.0 0.04 0.48 0.43 99 1009.2
20260506140104 42 286 1.0 2.0 0.04 0.48 0.43 99 1009.2
20260506140005 42 292 1.0 2.0 0.04 0.48 0.43 99 1009.2
20260506135904 42 292 1.0 2.0 0.04 0.48 0.43 99 1009.3
20260506135805 41 292 1.0 2.0 0.04 0.48 0.43 99 1009.2
20260506135705 41 294 1.0 2.0 0.04 0.48 0.43 99 1009.1
20260506135604 41 296 1.0 2.0 0.04 0.48 0.43 99 1009.2
20260506135505 41 301 1.0 2.0 0.04 0.48 0.43 99 1009.3
20260506135405 41 302 1.0 2.0 0.04 0.48 0.43 99 1009.3
20260506135306 41 302 1.0 2.0 0.04 0.48 0.43 99 1009.3
20260506135204 41 314 0.0 2.0 0.04 0.48 0.43 99 1009.2
20260506135105 41 314 0.0 2.0 0.02 0.47 0.41 99 1009.3
20260506135005 41 314 0.0 2.0 0.02 0.47 0.41 99 1009.3
20260506134905 41 314 0.0 2.0 0.02 0.47 0.41 99 1009.3
20260506134805 41 314 0.0 2.0 0.02 0.47 0.41 99 1009.1
20260506134705 41 301 0.0 2.0 0.02 0.47 0.41 99 1009.1
20260506134604 40 292 0.0 2.0 0.02 0.47 0.41 99 1009.3
20260506134505 40 292 0.0 2.0 0.02 0.47 0.41 99 1009.3
20260506134404 40 292 0.0 2.0 0.02 0.47 0.41 99 1009.2
20260506134205 41 292 0.0 2.0 0.02 0.47 0.41 99 1009.3
20260506134105 41 292 0.0 2.0 0.02 0.47 0.41 99 1009.2
20260506134005 41 292 0.0 2.0 0.02 0.47 0.41 99 1009.2
20260506133904 41 292 0.0 2.0 0.02 0.47 0.41 99 1009.3
20260506133804 40 292 0.0 2.0 0.02 0.47 0.41 99 1009.4
20260506133704 40 292 0.0 2.0 0.02 0.47 0.41 99 1009.2
20260506133605 40 292 0.0 2.0 0.02 0.47 0.41 99 1009.2
20260506133505 40 301 0.0 2.0 0.02 0.47 0.41 99 1009.1
20260506133405 40 290 0.0 2.0 0.01 0.46 0.40 99 1009.2
20260506133304 40 294 0.0 2.0 0.01 0.46 0.40 99 1009.2
20260506133204 40 296 1.0 2.0 0.01 0.46 0.40 99 1008.9
20260506133104 40 298 1.0 2.0 0.01 0.46 0.40 99 1009.2
20260506133005 41 296 1.0 2.0 0.01 0.46 0.40 99 1009.0
20260506132904 41 293 1.0 2.0 0.01 0.46 0.40 99 1009.0
20260506132805 41 291 1.0 2.0 0.01 0.46 0.40 99 1009.1
20260506132705 41 287 1.0 2.0 0.01 0.46 0.40 99 1009.2
20260506132604 41 286 1.0 2.0 0.01 0.46 0.40 99 1009.0
20260506132404 41 303 1.0 2.0 0.01 0.46 0.40 99 1009.0
20260506132204 42 251 2.0 4.0 0.01 0.46 0.40 99 1009.0
20260506132105 42 192 2.0 4.0 0.01 0.46 0.40 99 1008.9
20260506132005 42 165 2.0 4.0 0.01 0.46 0.40 98 1009.1
20260506131905 42 155 2.0 4.0 0.01 0.46 0.40 99 1008.9
20260506131804 42 147 2.0 4.0 0.01 0.46 0.40 97 1009.1
20260506131704 42 146 2.0 4.0 0.01 0.46 0.40 97 1008.9
20260506131604 42 152 2.0 4.0 0.01 0.46 0.40 98 1009.0
20260506131505 42 158 2.0 4.0 0.01 0.46 0.40 95 1009.0
20260506131304 42 141 2.0 4.0 0.01 0.46 0.40 98 1009.0
20260506131204 42 124 1.0 4.0 0.01 0.46 0.40 98 1008.9
20260506131005 41 126 1.0 2.0 0.01 0.46 0.40 99 1009.0
20260506130804 41 104 1.0 2.0 0.00 0.45 0.39 99 1009.0
20260506130705 41 139 1.0 2.0 0.00 0.45 0.39 99 1009.2
20260506130604 40 227 1.0 2.0 0.00 0.45 0.39 99 1009.0
20260506130505 40 248 1.0 2.0 0.00 0.45 0.39 99 1009.0
20260506130404 41 244 1.0 2.0 0.00 0.45 0.39 99 1009.0
20260506130304 41 239 1.0 4.0 0.00 0.45 0.39 99 1009.1
20260506130204 42 240 2.0 4.0 0.00 0.45 0.39 99 1009.3
20260506125905 42 230 2.0 6.0 0.00 0.45 0.39 99 1008.8
20260506125805 42 230 3.0 6.0 0.00 0.45 0.39 99 1008.8
20260506125705 42 234 3.0 6.0 0.00 0.45 0.39 99 1009.0
20260506125604 43 237 3.0 6.0 0.00 0.45 0.39 99 1008.8
20260506125505 43 239 3.0 6.0 0.00 0.45 0.39 99 1008.9
20260506125404 43 242 3.0 6.0 0.00 0.45 0.39 99 1008.6
20260506125305 43 244 3.0 6.0 0.00 0.45 0.39 99 1008.6
20260506125204 43 244 3.0 6.0 0.00 0.45 0.39 98 1008.8
20260506125105 44 255 3.0 6.0 0.00 0.45 0.39 98 1009.1
20260506125005 45 261 3.0 6.0 0.00 0.45 0.39 98 1008.9
20260506124905 45 258 3.0 6.0 0.00 0.45 0.39 98 1009.0
20260506124705 45 264 2.0 4.0 0.00 0.45 0.39 98 1009.0
20260506124505 44 215 3.0 7.0 0.00 0.45 0.39 99 1008.9
20260506124404 44 187 3.0 7.0 0.00 0.45 0.39 99 1008.9
20260506124304 44 169 4.0 8.0 0.00 0.45 0.39 99 1008.9
20260506124005 43 158 4.0 8.0 0.00 0.45 0.39 99 1009.0
20260506123904 42 158 4.0 8.0 0.00 0.45 0.39 99 1009.0
20260506123805 41 156 4.0 8.0 0.00 0.45 0.39 99 1008.9
20260506123705 41 155 4.0 8.0 0.00 0.45 0.39 99 1008.8
20260506123604 41 150 4.0 8.0 0.00 0.45 0.39 99 1009.0
20260506123404 41 170 4.0 8.0 0.00 0.45 0.39 99 1008.9
20260506123304 40 183 3.0 4.0 0.00 0.45 0.39 99 1009.0
20260506123205 40 182 3.0 4.0 0.00 0.45 0.39 99 1009.0
20260506123004 40 188 3.0 4.0 0.00 0.45 0.39 99 1009.1
20260506122905 40 192 3.0 4.0 0.00 0.45 0.39 99 1009.2
20260506122804 39 197 3.0 4.0 0.00 0.45 0.39 99 1009.0
20260506122704 39 201 3.0 4.0 0.00 0.45 0.39 99 1009.1
20260506122604 38 198 3.0 4.0 0.00 0.45 0.39 99 1009.3
20260506122505 38 199 3.0 4.0 0.00 0.45 0.39 99 1009.2
20260506122306 38 190 3.0 4.0 0.00 0.45 0.39 99 1009.1
20260506122205 38 197 3.0 4.0 0.00 0.45 0.39 99 1009.1
20260506122104 38 200 3.0 4.0 0.00 0.45 0.39 99 1009.1
20260506122005 38 205 3.0 4.0 0.00 0.45 0.39 99 1008.9
20260506121904 38 207 3.0 4.0 0.00 0.45 0.39 99 1008.9
20260506121804 38 217 2.0 4.0 0.00 0.45 0.39 99 1009.1
20260506121704 38 223 2.0 4.0 0.01 0.45 0.39 99 1009.2
20260506121505 38 249 2.0 4.0 0.01 0.45 0.39 99 1009.2
20260506121404 38 273 2.0 2.0 0.01 0.45 0.39 99 1009.2
20260506121304 38 280 2.0 2.0 0.01 0.45 0.39 99 1009.1
20260506121205 38 284 2.0 2.0 0.01 0.45 0.39 99 1009.2
20260506121104 38 289 2.0 2.0 0.01 0.45 0.39 99 1009.2
20260506121005 38 296 2.0 2.0 0.01 0.45 0.39 99 1009.0
20260506120904 38 296 2.0 2.0 0.01 0.45 0.39 99 1009.0
20260506120804 38 298 2.0 2.0 0.01 0.45 0.39 99 1008.9
20260506120704 38 300 2.0 4.0 0.01 0.45 0.39 99 1008.9
20260506120505 39 300 2.0 4.0 0.01 0.45 0.39 99 1009.1
20260506120404 39 298 2.0 4.0 0.01 0.45 0.39 99 1009.0
20260506120205 39 280 2.0 4.0 0.01 0.45 0.39 99 1008.9
20260506120104 39 271 2.0 4.0 0.01 0.45 0.39 99 1009.1
20260506120005 39 256 2.0 4.0 0.01 0.45 0.39 99 1008.9
20260506115904 39 250 2.0 4.0 0.01 0.45 0.39 99 1008.9
20260506115505 38 185 2.0 4.0 0.02 0.45 0.39 99 1008.9
20260506115404 38 179 2.0 4.0 0.04 0.45 0.39 99 1008.8
20260506115307 38 177 2.0 4.0 0.04 0.45 0.39 99 1008.8
20260506115204 38 181 2.0 4.0 0.04 0.45 0.39 99 1008.7
20260506115105 38 177 2.0 4.0 0.04 0.45 0.39 99 1008.7
20260506115005 38 179 2.0 4.0 0.04 0.45 0.39 99 1008.8
20260506114905 38 176 2.0 4.0 0.04 0.45 0.39 99 1008.7
20260506114805 38 178 2.0 4.0 0.04 0.45 0.39 99 1008.5
20260506114704 38 193 2.0 4.0 0.05 0.45 0.39 99 1008.6
20260506114604 39 212 2.0 4.0 0.05 0.45 0.39 99 1008.7
20260506114505 39 215 2.0 4.0 0.05 0.45 0.39 99 1008.7
20260506114404 39 211 2.0 4.0 0.05 0.45 0.39 99 1008.6
20260506114304 39 225 2.0 4.0 0.05 0.45 0.39 99 1008.9
20260506114205 39 238 2.0 4.0 0.05 0.45 0.39 99 1009.0
20260506114105 39 239 2.0 4.0 0.05 0.45 0.39 99 1008.9
20260506114006 38 236 2.0 4.0 0.06 0.45 0.39 99 1008.8
20260506113904 38 240 2.0 4.0 0.06 0.45 0.39 99 1009.1
20260506113605 39 242 2.0 4.0 0.06 0.45 0.39 99 1009.0
20260506113404 39 256 1.0 4.0 0.06 0.45 0.39 99 1009.1
20260506113304 40 249 1.0 4.0 0.06 0.45 0.39 99 1009.0
20260506113204 40 243 1.0 4.0 0.06 0.45 0.39 99 1009.1
20260506113104 40 241 0.0 4.0 0.06 0.45 0.39 99 1009.0
20260506113005 40 217 0.0 2.0 0.06 0.45 0.39 99 1009.1
20260506112904 40 165 0.0 2.0 0.07 0.45 0.39 99 1009.1
20260506112704 40 167 0.0 2.0 0.08 0.45 0.39 99 1009.2
20260506112505 40 154 0.0 2.0 0.09 0.45 0.39 99 1008.9
20260506112204 40 151 0.0 2.0 0.09 0.45 0.39 99 1009.1
20260506112005 39 150 0.0 2.0 0.12 0.45 0.39 99 1009.1
20260506111904 39 133 0.0 2.0 0.12 0.45 0.39 99 1009.0
20260506111704 39 112 0.0 2.0 0.13 0.44 0.38 99 1009.0
20260506111605 39 140 0.0 2.0 0.13 0.44 0.38 99 1009.2
20260506111505 39 156 0.0 2.0 0.14 0.44 0.38 99 1009.0
20260506111405 39 139 1.0 2.0 0.14 0.44 0.38 99 1009.1
20260506111304 39 143 1.0 2.0 0.15 0.44 0.38 99 1009.3
20260506111204 39 144 1.0 2.0 0.15 0.44 0.38 99 1009.2
20260506111005 39 141 2.0 4.0 0.15 0.44 0.38 99 1009.4
20260506110904 39 137 2.0 4.0 0.15 0.44 0.38 99 1009.3
20260506110804 38 145 2.0 6.0 0.15 0.44 0.38 99 1009.3
20260506110704 38 152 3.0 6.0 0.15 0.44 0.38 99 1009.3
20260506110605 38 148 3.0 7.0 0.15 0.44 0.38 99 1009.3
20260506110504 38 144 3.0 7.0 0.17 0.44 0.38 99 1009.2
20260506110405 38 143 4.0 9.0 0.17 0.44 0.38 99 1009.2
20260506110304 38 142 4.0 9.0 0.17 0.44 0.38 99 1009.2
20260506110204 38 142 5.0 9.0 0.17 0.44 0.38 99 1009.1
20260506110104 38 141 5.0 9.0 0.17 0.44 0.38 99 1009.3
20260506110005 38 138 5.0 9.0 0.17 0.44 0.38 98 1009.3
20260506105805 38 133 5.0 9.0 0.15 0.43 0.37 99 1009.4
20260506105704 38 128 5.0 9.0 0.15 0.43 0.37 98 1009.6
20260506105505 38 124 4.0 9.0 0.15 0.43 0.37 99 1009.3
20260506105404 38 123 3.0 6.0 0.14 0.41 0.35 99 1009.2
20260506105305 38 122 3.0 6.0 0.14 0.41 0.35 97 1009.1
20260506105104 39 111 2.0 6.0 0.15 0.41 0.35 99 1009.3
20260506105005 39 105 2.0 4.0 0.15 0.41 0.35 99 1009.4
20260506104904 39 105 2.0 4.0 0.15 0.41 0.35 99 1009.5
20260506104705 39 92 1.0 4.0 0.14 0.40 0.34 99 1009.2
20260506104604 39 86 1.0 4.0 0.14 0.40 0.34 99 1009.2
20260506104405 39 78 1.0 4.0 0.14 0.41 0.34 99 1009.2
20260506104304 39 84 1.0 4.0 0.14 0.41 0.34 99 1009.2
20260506104204 39 92 1.0 4.0 0.15 0.41 0.34 99 1009.2
20260506104104 39 103 1.0 4.0 0.14 0.40 0.33 99 1009.4
20260506104005 39 112 1.0 4.0 0.14 0.40 0.33 99 1009.3
20260506103904 39 112 1.0 2.0 0.14 0.40 0.33 99 1009.4
20260506103804 39 128 1.0 2.0 0.14 0.40 0.33 99 1009.5
20260506103705 39 140 1.0 4.0 0.14 0.40 0.33 99 1009.1
20260506103604 39 151 1.0 4.0 0.14 0.40 0.33 99 1009.1
20260506103504 38 147 1.0 4.0 0.14 0.40 0.33 99 1009.3
20260506103405 39 147 1.0 4.0 0.14 0.40 0.33 99 1009.1
20260506103304 38 148 1.0 4.0 0.15 0.40 0.33 99 1009.1
20260506103204 38 151 1.0 4.0 0.15 0.40 0.33 99 1009.1
20260506103105 38 154 1.0 4.0 0.15 0.40 0.33 99 1009.2
20260506103005 38 169 1.0 4.0 0.14 0.39 0.32 99 1009.3
20260506102905 38 173 1.0 4.0 0.14 0.39 0.32 99 1009.1
20260506102804 38 184 1.0 4.0 0.13 0.38 0.31 99 1009.0
20260506102604 39 281 0.0 2.0 0.12 0.37 0.30 99 1009.2
20260506102505 39 281 0.0 2.0 0.12 0.37 0.30 99 1009.5
20260506102404 39 259 0.0 2.0 0.13 0.37 0.30 99 1009.3
20260506102306 39 233 0.0 2.0 0.13 0.37 0.30 99 1009.0
20260506102204 39 233 0.0 2.0 0.12 0.35 0.28 99 1009.4
20260506102104 39 233 0.0 2.0 0.11 0.34 0.27 99 1009.3
20260506101905 39 146 0.0 2.0 0.11 0.34 0.27 99 1009.4
20260506101804 39 146 0.0 2.0 0.09 0.33 0.26 99 1009.2
20260506101705 39 146 0.0 2.0 0.08 0.32 0.25 99 1009.3
20260506101604 39 146 0.0 2.0 0.08 0.32 0.25 99 1009.2
20260506101505 39 146 0.0 2.0 0.07 0.31 0.24 99 1009.1
20260506101304 39 160 0.0 2.0 0.06 0.30 0.22 99 1009.1
20260506101204 39 154 0.0 2.0 0.06 0.30 0.22 99 1009.0
20260506101104 39 154 0.0 2.0 0.06 0.30 0.22 99 1009.1
20260506101005 39 169 1.0 2.0 0.06 0.30 0.22 99 1009.0
20260506100805 39 215 1.0 4.0 0.06 0.30 0.22 99 1009.1
20260506100704 39 247 1.0 6.0 0.06 0.30 0.22 99 1008.9
20260506100604 39 255 2.0 6.0 0.06 0.30 0.22 99 1009.1
20260506100304 40 261 2.0 6.0 0.05 0.28 0.21 99 1008.9
20260506100104 40 244 3.0 6.0 0.05 0.28 0.21 99 1008.8
20260506100005 40 228 3.0 7.0 0.05 0.28 0.21 99 1008.7
20260506095904 40 222 4.0 7.0 0.05 0.28 0.21 99 1008.7
20260506095805 40 207 4.0 7.0 0.05 0.28 0.21 99 1008.6
20260506095604 40 192 4.0 7.0 0.05 0.28 0.21 99 1008.6
20260506095505 40 185 4.0 7.0 0.05 0.28 0.21 99 1008.5
20260506095405 39 179 4.0 7.0 0.05 0.30 0.21 99 1008.3
20260506095305 39 181 4.0 7.0 0.05 0.30 0.21 99 1008.2
20260506095204 39 185 3.0 7.0 0.05 0.30 0.21 99 1008.3
20260506095104 39 181 3.0 7.0 0.04 0.28 0.20 99 1008.4
20260506095005 39 175 3.0 7.0 0.04 0.28 0.20 99 1008.1
20260506094905 39 169 3.0 7.0 0.04 0.28 0.20 99 1008.3
20260506094804 39 169 3.0 4.0 0.04 0.28 0.20 99 1008.4
20260506094506 39 171 2.0 4.0 0.04 0.28 0.20 99 1008.3
20260506094404 39 169 3.0 4.0 0.05 0.28 0.20 99 1008.5
20260506094205 39 159 3.0 4.0 0.04 0.27 0.19 99 1008.4
20260506093905 40 185 2.0 4.0 0.04 0.27 0.19 99 1008.6
20260506093804 40 185 2.0 2.0 0.04 0.27 0.19 99 1008.5
20260506093704 39 174 2.0 2.0 0.04 0.27 0.19 99 1008.6
20260506093604 39 160 2.0 2.0 0.04 0.27 0.19 99 1008.5
20260506093507 39 169 2.0 4.0 0.04 0.27 0.19 99 1008.5
20260506093405 40 191 2.0 4.0 0.06 0.27 0.19 99 1008.7
20260506093305 40 164 2.0 4.0 0.05 0.26 0.18 99 1008.5
20260506092904 39 175 3.0 4.0 0.06 0.26 0.18 99 1008.5
20260506092804 39 184 3.0 4.0 0.06 0.26 0.18 99 1008.8
20260506092704 39 176 3.0 4.0 0.06 0.26 0.18 99 1008.6
20260506092603 39 178 3.0 4.0 0.05 0.25 0.17 99 1008.6
20260506092504 39 171 4.0 8.0 0.05 0.25 0.17 98 1008.4
20260506092403 39 163 4.0 8.0 0.05 0.26 0.17 98 1008.7
20260506092306 39 156 5.0 8.0 0.05 0.26 0.17 99 1008.5
20260506092204 39 156 5.0 8.0 0.05 0.26 0.17 99 1008.5
20260506092104 40 164 5.0 8.0 0.05 0.26 0.17 99 1008.5
20260506092004 40 174 5.0 8.0 0.05 0.26 0.17 98 1008.7
20260506091904 40 174 5.0 8.0 0.05 0.26 0.17 98 1008.7
20260506091704 40 172 5.0 8.0 0.06 0.26 0.17 97 1008.6
20260506091604 40 176 5.0 8.0 0.06 0.26 0.17 97 1008.7
20260506091505 40 204 4.0 8.0 0.06 0.26 0.17 96 1008.6
20260506091404 40 268 4.0 8.0 0.06 0.26 0.17 97 1008.7
20260506091304 40 284 4.0 7.0 0.06 0.26 0.17 99 1009.0
20260506091204 40 288 3.0 7.0 0.06 0.26 0.17 99 1008.9
20260506091005 40 324 2.0 7.0 0.06 0.26 0.17 98 1008.7
20260506090804 39 320 2.0 7.0 0.06 0.26 0.17 99 1008.6
20260506090703 40 317 2.0 7.0 0.06 0.26 0.17 99 1008.8
20260506090504 40 305 2.0 7.0 0.06 0.26 0.17 99 1008.9
20260506090404 40 259 1.0 4.0 0.06 0.27 0.17 99 1008.7
20260506090304 40 181 1.0 2.0 0.06 0.27 0.17 99 1008.6
20260506090204 40 178 2.0 4.0 0.06 0.27 0.17 99 1008.7
20260506090104 40 174 2.0 4.0 0.06 0.27 0.17 99 1008.5
20260506090005 40 168 2.0 4.0 0.06 0.27 0.17 99 1008.6
20260506085904 40 161 3.0 4.0 0.06 0.27 0.17 99 1008.9
20260506085804 39 160 3.0 4.0 0.06 0.27 0.17 99 1008.7
20260506085703 39 159 3.0 4.0 0.06 0.27 0.17 99 1008.5
20260506085603 39 154 3.0 4.0 0.06 0.27 0.17 99 1008.6
20260506085305 38 159 4.0 6.0 0.06 0.28 0.17 99 1008.7
20260506085204 38 156 4.0 6.0 0.06 0.28 0.17 99 1008.7
20260506084904 38 160 4.0 6.0 0.06 0.30 0.17 99 1008.6
20260506084704 38 157 4.0 6.0 0.06 0.30 0.17 99 1008.4
20260506084604 38 161 4.0 6.0 0.05 0.28 0.15 99 1008.5
20260506084304 38 155 4.0 6.0 0.05 0.28 0.15 99 1008.7
20260506084203 38 161 4.0 4.0 0.05 0.28 0.15 99 1008.6
20260506084104 38 163 4.0 4.0 0.05 0.28 0.15 99 1008.6
20260506083903 38 166 4.0 4.0 0.04 0.28 0.14 99 1008.8
20260506083704 37 168 4.0 4.0 0.02 0.27 0.13 99 1008.7
20260506083604 37 167 4.0 4.0 0.02 0.27 0.13 99 1008.7
20260506083404 37 174 4.0 4.0 0.01 0.26 0.12 99 1008.8
20260506083104 37 177 3.0 4.0 0.01 0.26 0.12 99 1008.8
20260506083004 38 181 3.0 4.0 0.01 0.26 0.12 99 1008.6
20260506082904 38 181 3.0 4.0 0.01 0.26 0.12 99 1008.9
20260506082804 38 186 3.0 4.0 0.01 0.26 0.12 99 1008.7
20260506082704 38 186 3.0 4.0 0.02 0.26 0.12 99 1008.6
20260506082603 38 188 3.0 4.0 0.02 0.26 0.12 99 1008.7
20260506082504 38 190 3.0 4.0 0.02 0.26 0.12 99 1008.7
20260506082305 38 192 2.0 4.0 0.02 0.27 0.12 99 1008.9
20260506082104 38 187 2.0 4.0 0.02 0.27 0.12 99 1008.7
20260506082005 38 182 2.0 4.0 0.02 0.27 0.12 99 1008.6
20260506081904 38 195 1.0 4.0 0.02 0.27 0.12 99 1008.6
20260506081804 39 188 1.0 4.0 0.01 0.26 0.11 99 1008.7
20260506081703 39 201 1.0 2.0 0.01 0.26 0.11 99 1008.8
20260506081603 39 199 1.0 4.0 0.01 0.26 0.11 99 1008.7
20260506081504 39 213 1.0 4.0 0.01 0.26 0.11 99 1008.8
20260506081404 39 206 1.0 4.0 0.01 0.27 0.11 99 1008.9
20260506081304 39 206 1.0 4.0 0.01 0.27 0.11 99 1008.7
20260506081204 39 214 1.0 4.0 0.01 0.27 0.11 99 1008.6
20260506081104 39 214 2.0 4.0 0.01 0.27 0.11 99 1008.6
20260506081005 39 217 2.0 4.0 0.01 0.27 0.11 99 1008.7
20260506080903 39 212 2.0 4.0 0.01 0.27 0.11 99 1008.7
20260506080804 39 226 2.0 4.0 0.01 0.27 0.11 99 1008.6
20260506080704 39 230 2.0 4.0 0.01 0.27 0.11 99 1008.7
20260506080604 39 238 2.0 4.0 0.01 0.27 0.11 99 1008.6
20260506080504 39 232 1.0 2.0 0.01 0.27 0.11 99 1008.9
20260506080404 39 229 1.0 2.0 0.01 0.27 0.11 99 1008.7
20260506080304 39 229 2.0 2.0 0.01 0.27 0.11 99 1008.9
20260506080203 40 219 2.0 2.0 0.01 0.27 0.11 99 1008.8
20260506080104 40 212 2.0 2.0 0.01 0.27 0.11 99 1008.8
20260506073505 38 182 2.0 2.0 0.01 0.27 0.11 99 1009.0
20260506073304 38 171 2.0 4.0 0.01 0.27 0.11 99 1009.1
20260506073204 38 165 2.0 4.0 0.01 0.27 0.11 99 1009.3
20260506073104 38 161 2.0 4.0 0.01 0.27 0.11 99 1009.1
20260506073004 38 163 2.0 4.0 0.01 0.27 0.11 99 1009.0
20260506072903 38 164 2.0 4.0 0.01 0.27 0.11 99 1009.0
20260506072704 38 166 2.0 4.0 0.00 0.26 0.09 99 1009.0
20260506072604 38 169 2.0 4.0 0.00 0.26 0.09 99 1009.0
20260506072505 38 165 2.0 4.0 0.00 0.26 0.09 99 1009.1
20260506072404 38 164 1.0 4.0 0.00 0.26 0.09 99 1009.0
20260506072305 38 171 1.0 2.0 0.00 0.26 0.09 99 1009.1
20260506072203 38 184 1.0 2.0 0.00 0.26 0.09 99 1009.2
20260506072103 38 188 1.0 2.0 0.00 0.26 0.09 99 1009.0
20260506072004 38 188 1.0 2.0 0.00 0.26 0.09 99 1009.2
20260506071904 38 195 1.0 2.0 0.00 0.26 0.09 99 1009.0
20260506071804 38 197 1.0 2.0 0.00 0.26 0.09 99 1009.0
20260506071704 38 194 1.0 2.0 0.00 0.26 0.09 99 1009.1
20260506071604 38 188 2.0 2.0 0.00 0.26 0.09 99 1009.1
20260506071504 38 183 2.0 2.0 0.00 0.26 0.09 99 1009.2
20260506071304 38 182 2.0 2.0 0.00 0.26 0.09 99 1008.7
20260506071204 38 175 2.0 2.0 0.00 0.26 0.09 99 1009.0
20260506071104 38 175 2.0 2.0 0.00 0.26 0.09 99 1009.0
20260506071004 38 175 2.0 2.0 0.00 0.26 0.09 99 1009.0
20260506070803 38 167 2.0 2.0 0.00 0.26 0.09 99 1008.9
20260506070603 38 171 1.0 2.0 0.00 0.26 0.09 99 1009.1
20260506070504 38 175 1.0 2.0 0.02 0.26 0.09 99 1009.0
20260506070404 38 175 1.0 2.0 0.02 0.26 0.09 99 1008.9
20260506070304 38 182 1.0 2.0 0.02 0.26 0.09 99 1009.1
20260506070204 38 197 1.0 2.0 0.02 0.26 0.09 99 1009.1
20260506070103 38 203 1.0 2.0 0.02 0.26 0.09 99 1009.0
20260506062505 37 167 0.0 4.0 0.06 0.26 0.09 99 1009.6
20260506062403 37 177 1.0 4.0 0.06 0.26 0.09 99 1009.4
20260506062305 37 172 1.0 4.0 0.06 0.26 0.09 99 1009.4
20260506062004 37 169 1.0 4.0 0.06 0.26 0.09 99 1009.4
20260506061904 37 169 1.0 4.0 0.06 0.26 0.09 99 1009.3
20260506061804 37 171 1.0 4.0 0.06 0.26 0.09 99 1009.4
20260506061603 36 173 2.0 4.0 0.06 0.26 0.09 99 1009.5
20260506061504 37 173 2.0 4.0 0.06 0.26 0.09 99 1009.4
20260506061403 37 164 2.0 2.0 0.06 0.26 0.09 99 1009.6
20260506061204 37 158 2.0 2.0 0.06 0.26 0.09 99 1009.5
20260506061104 37 152 2.0 2.0 0.06 0.26 0.09 99 1009.4
20260506061005 36 149 2.0 2.0 0.06 0.26 0.09 99 1009.3
20260506060904 36 154 2.0 4.0 0.06 0.26 0.09 99 1009.3
20260506060803 37 161 2.0 4.0 0.06 0.26 0.09 99 1009.4
20260506060704 37 165 2.0 4.0 0.06 0.26 0.09 99 1009.2
20260506060604 37 166 3.0 4.0 0.06 0.26 0.09 99 1009.4
20260506060504 37 168 2.0 4.0 0.04 0.24 0.07 99 1009.2
20260506060403 37 178 2.0 4.0 0.04 0.24 0.07 99 1009.2
20260506060303 37 181 2.0 4.0 0.04 0.24 0.07 99 1009.3
20260506060204 37 184 2.0 4.0 0.04 0.24 0.07 99 1009.1
20260506060104 37 187 2.0 4.0 0.04 0.24 0.07 99 1009.4
20260506051403 38 185 2.0 4.0 0.00 0.20 0.04 99 1009.7
20260506051303 38 191 2.0 4.0 0.00 0.20 0.04 99 1009.6
20260506051104 38 196 2.0 4.0 0.00 0.20 0.04 99 1009.5
20260506051005 38 198 2.0 4.0 0.00 0.20 0.04 99 1009.4
20260506050804 38 199 2.0 4.0 0.00 0.20 0.04 99 1009.5
20260506050703 38 207 2.0 4.0 0.00 0.20 0.04 99 1009.4
20260506050404 38 235 1.0 4.0 0.00 0.20 0.04 99 1009.5
20260506050303 38 236 1.0 4.0 0.00 0.20 0.04 99 1009.3
20260506050203 38 238 1.0 4.0 0.00 0.20 0.04 99 1009.4
20260506050104 38 226 1.0 4.0 0.00 0.20 0.04 99 1009.4
20260506044903 38 165 1.0 4.0 0.00 0.20 0.04 99 1009.3
20260506044804 38 164 1.0 4.0 0.00 0.20 0.04 99 1009.4
20260506044704 38 165 1.0 4.0 0.00 0.20 0.04 99 1009.5
20260506044604 38 165 1.0 4.0 0.00 0.20 0.04 99 1009.4
20260506044505 38 165 1.0 4.0 0.00 0.20 0.04 99 1009.3
20260506044404 38 165 1.0 4.0 0.00 0.20 0.04 99 1009.3
20260506044303 38 169 1.0 4.0 0.00 0.20 0.04 99 1009.4
20260506044203 38 135 0.0 4.0 0.00 0.20 0.04 99 1009.1
20260506044103 38 0 0.0 0.0 0.00 0.20 0.04 99 1009.3
20260506044004 38 0 0.0 0.0 0.00 0.20 0.04 99 1009.4
20260506043903 38 203 0.0 2.0 0.00 0.20 0.04 99 1009.3
20260506043804 38 203 0.0 2.0 0.00 0.20 0.04 99 1009.5
20260506043704 38 203 0.0 2.0 0.00 0.20 0.04 99 1009.3
20260506043504 38 203 0.0 2.0 0.00 0.20 0.04 99 1009.5
20260506043404 38 203 0.0 2.0 0.00 0.20 0.04 99 1009.0
20260506043203 37 203 0.0 2.0 0.00 0.20 0.04 99 1009.2
20260506043103 37 203 0.0 2.0 0.00 0.20 0.04 99 1009.2
20260506043004 37 203 0.0 2.0 0.00 0.20 0.04 99 1009.1
20260506042904 37 203 0.0 2.0 0.00 0.20 0.04 99 1009.1
20260506042704 38 0 0.0 0.0 0.00 0.20 0.04 99 1009.3
20260506042604 38 0 0.0 0.0 0.00 0.20 0.04 99 1009.2
20260506042504 38 0 0.0 0.0 0.00 0.20 0.04 99 1009.3
20260506042404 38 0 0.0 0.0 0.00 0.20 0.04 99 1009.3
20260506042305 38 0 0.0 0.0 0.00 0.20 0.04 99 1009.1
20260506042203 38 135 0.0 2.0 0.00 0.20 0.04 99 1009.2
20260506042103 38 135 0.0 2.0 0.00 0.20 0.04 99 1009.1
20260506042004 38 135 0.0 2.0 0.00 0.20 0.04 99 1009.3
20260506041904 38 135 0.0 2.0 0.00 0.20 0.04 99 1009.4
20260506041804 37 142 0.0 2.0 0.00 0.20 0.04 99 1009.3
20260506041704 37 142 0.0 2.0 0.00 0.20 0.04 99 1009.1
20260506041504 37 159 0.0 2.0 0.00 0.20 0.04 99 1009.3
20260506041403 38 159 1.0 2.0 0.00 0.20 0.04 99 1009.3
20260506041304 38 159 1.0 2.0 0.00 0.20 0.04 99 1009.2
20260506041204 37 162 0.0 2.0 0.00 0.20 0.04 99 1009.4
20260506041104 37 177 0.0 2.0 0.00 0.20 0.04 99 1009.1
20260506041004 37 182 0.0 2.0 0.00 0.20 0.04 99 1009.3
20260506040903 37 182 0.0 2.0 0.00 0.20 0.04 99 1009.2
20260506040704 37 203 0.0 2.0 0.00 0.20 0.04 99 1009.3
20260506040604 37 0 0.0 0.0 0.00 0.20 0.04 99 1009.3
20260506040404 37 0 0.0 0.0 0.00 0.20 0.04 99 1009.3
20260506040304 37 0 0.0 0.0 0.00 0.20 0.04 99 1009.2
20260506040204 37 158 0.0 2.0 0.00 0.20 0.04 99 1009.2
20260506040004 37 166 0.0 2.0 0.00 0.20 0.04 99 1009.2
20260506035903 37 165 0.0 2.0 0.00 0.20 0.04 99 1009.2
20260506035604 38 164 1.0 2.0 0.00 0.20 0.04 99 1009.4
20260506035505 38 163 1.0 2.0 0.00 0.20 0.04 99 1009.3
20260506035404 37 163 1.0 2.0 0.00 0.20 0.04 99 1009.1
20260506035203 37 165 1.0 2.0 0.00 0.20 0.04 99 1009.2
20260506035103 37 172 1.0 2.0 0.00 0.20 0.04 99 1009.4
20260506034903 37 167 1.0 2.0 0.00 0.20 0.04 99 1009.3
20260506034803 37 167 1.0 2.0 0.00 0.20 0.04 99 1009.4
20260506034703 37 166 1.0 2.0 0.00 0.20 0.04 99 1009.4
20260506034604 37 166 2.0 4.0 0.00 0.20 0.04 99 1009.2
20260506034504 37 164 2.0 4.0 0.00 0.20 0.04 99 1009.3
20260506034404 37 164 2.0 4.0 0.00 0.20 0.04 99 1009.3
20260506034304 37 169 2.0 4.0 0.00 0.20 0.04 99 1009.4
20260506034204 37 165 2.0 4.0 0.00 0.20 0.04 99 1009.4
20260506034004 37 157 1.0 4.0 0.00 0.20 0.04 99 1009.6
20260506033903 37 159 1.0 4.0 0.00 0.20 0.04 99 1009.2
20260506033804 37 161 1.0 4.0 0.00 0.20 0.04 99 1009.4
20260506033704 37 165 1.0 4.0 0.00 0.20 0.04 99 1009.5
20260506033604 37 166 1.0 2.0 0.00 0.20 0.04 99 1009.4
20260506033504 37 173 1.0 2.0 0.00 0.20 0.04 99 1009.6
20260506033403 37 174 1.0 2.0 0.00 0.20 0.04 99 1009.6
20260506033303 37 164 1.0 2.0 0.00 0.20 0.04 99 1009.7
20260506033104 37 169 1.0 2.0 0.00 0.20 0.04 99 1009.6
20260506033005 37 170 1.0 2.0 0.00 0.20 0.04 99 1009.7
20260506032904 37 171 2.0 2.0 0.00 0.20 0.04 99 1009.9
20260506032804 37 170 2.0 2.0 0.00 0.20 0.04 99 1009.6
20260506032703 37 166 2.0 2.0 0.00 0.20 0.04 99 1009.5
20260506032504 37 167 1.0 2.0 0.00 0.20 0.04 99 1009.5
20260506032403 37 166 1.0 2.0 0.00 0.20 0.04 99 1009.5
20260506032203 37 172 1.0 2.0 0.00 0.20 0.04 99 1009.4
20260506032104 37 174 1.0 2.0 0.00 0.20 0.04 99 1009.6
20260506032004 37 173 1.0 2.0 0.00 0.20 0.04 99 1009.5
20260506031904 37 172 1.0 2.0 0.00 0.20 0.04 99 1009.6
20260506031804 37 169 1.0 2.0 0.00 0.20 0.04 99 1009.6
20260506031704 37 178 1.0 2.0 0.00 0.20 0.04 99 1009.5
20260506031603 37 174 0.0 2.0 0.00 0.20 0.04 99 1009.7
20260506031504 37 174 0.0 2.0 0.00 0.20 0.04 99 1009.7
20260506031303 37 175 1.0 2.0 0.00 0.20 0.04 99 1009.9
20260506031203 37 173 0.0 2.0 0.00 0.20 0.04 99 1009.9
20260506031004 37 181 0.0 2.0 0.00 0.20 0.04 99 1010.0
20260506030904 37 181 0.0 2.0 0.00 0.20 0.04 99 1009.8
20260506030804 37 181 0.0 2.0 0.00 0.20 0.04 99 1009.8
20260506030703 37 181 0.0 2.0 0.00 0.20 0.04 99 1010.0
20260506030504 37 170 0.0 2.0 0.00 0.20 0.04 99 1009.8
20260506030403 37 164 0.0 2.0 0.00 0.20 0.04 99 1009.9
20260506030303 37 160 0.0 2.0 0.00 0.20 0.04 99 1009.8
20260506030204 37 158 0.0 2.0 0.00 0.20 0.04 99 1010.0
20260506030104 37 158 0.0 2.0 0.00 0.20 0.04 99 1010.0
20260506030004 37 158 0.0 2.0 0.00 0.20 0.04 99 1010.1
20260506025904 37 158 0.0 2.0 0.00 0.20 0.04 99 1010.0
20260506025804 37 158 0.0 2.0 0.00 0.20 0.04 99 1010.0
20260506025703 37 158 0.0 2.0 0.00 0.20 0.04 99 1010.0
20260506025603 37 158 1.0 2.0 0.00 0.20 0.04 99 1010.1
20260506025305 37 158 1.0 2.0 0.00 0.20 0.04 99 1009.9